Tracking 31032 objects as of 14-Jul-2025
HD Live streaming from Space Station
objects crossing your sky now

METEOR 2-17 DEB

Track METEOR 2-17 DEB now!
10-day predictions


NORAD ID: 29300
Int'l Code: 1988-005P
Perigee: 866.3 km
Apogee: 910.4 km
Inclination: 82.5 °
Period: 102.6 minutes
Semi major axis: 7259 km
RCS: 0.0063 m2 (small)
Launch date: January 30, 1988
Source: Commonwealth of Independent States (former USSR) (CIS)
Launch site: PLESETSK MISSILE AND SPACE COMPLEX (PKMTR)

Note: This is SATELLITE DEBRIS
Your satellite tracking list
Your tracking list is empty




NASA's NSSDC Master Catalog

Two Line Element Set (TLE):
1 29300U 88005P   25185.74605456  .00001980  00000-0  12469-2 0  9995
2 29300  82.5399 185.5603 0030367 269.6199  90.1492 14.03653347970301
Source of the keplerian elements: AFSPC